Station 46028 (LLNR 275) - CAPE SAN MARTIN - 55NM West NW of Morro Bay, CA Image indicating link to RSS feed of recent meteorological observations for station 46028


Conditions at 46028 as of
(3:20 pm PST)
2320 GMT on 12/01/2023:
     

Click on the graph icon in the table below to see a time series plot of the last five days of that observation.

5-day plot - Wind Direction Wind Direction (WDIR):NNW ( 330 deg true )
5-day plot - Wind Speed Wind Speed (WSPD): 19.4 kts
5-day plot - Wind Gust Wind Gust (GST): 25.3 kts
5-day plot - Wave Height Wave Height (WVHT): 7.5 ft
5-day plot - Dominant Wave Period Dominant Wave Period (DPD): 7 sec
5-day plot - Average Wave Period Average Period (APD): 5.8 sec
5-day plot - Mean Wave Direction Mean Wave Direction (MWD): NW ( 306 deg true )
5-day plot - Atmospheric Pressure Atmospheric Pressure (PRES):30.12 in
5-day plot - Air Temperature Air Temperature (ATMP): 57.9 °F
5-day plot - Water Temperature Water Temperature (WTMP): 59.9 °F
5-day plot - Dew Point Dew Point (DEWP): 51.1 °F
5-day plot - Wind Speed at 10 Meters Wind Speed at 10 meters (WSPD10M): 21.4 kts
5-day plot - Wind Speed at 20 Meters Wind Speed at 20 meters (WSPD20M): 23.3 kts
5-day plot -  Wind Speed, Wind Gust and Atmospheric Pressure Combined plot of Wind Speed, Gust, and Air Pressure
Supplemental Measurements
Highest 1-minute Wind Speed
Time (PST)5-day plot - 1-Minute Wind Speed WSPD 5-day plot - 1-Minute Wind Direction WDIR
3:12 pm 23.3 kts-
Previous observations
TIME
(PST)
5-day plot - Wind Direction
WDIR
 
5-day plot - Wind Speed
WSPD
kts
5-day plot - Wind Gust
GST
kts
5-day plot - Wave Height
WVHT
ft
5-day plot - Dominant Wave Period
DPD
sec
5-day plot - Average Wave Period
APD
sec
5-day plot - Mean Wave Direction
MWD
 
5-day plot - Atmospheric Pressure
PRES
in
5-day plot - Pressure Tendency
PTDY
in
5-day plot - Air Temperature
ATMP
°F
5-day plot - Water Temperature
WTMP
°F
5-day plot - Dew Point
DEWP
°F
5-day plot - Salinity
SAL
psu
5-day plot - Visibility
VIS
nmi
5-day plot - Tide (above MLLW)
TIDE
ft
2023-12-01 03:10 pmNNW 21.4 25.3 7.5-5.8 NW30.12- 57.7 60.1 50.9---
2023-12-01 03:00 pmNNW 21.4 27.2----30.12-0.01 57.7 60.1 50.7---
2023-12-01 02:50 pmNNW 19.4 25.3 7.5 165.9WNW30.11- 57.7 60.1 50.7---
2023-12-01 02:40 pm NW 23.3 27.2 7.5-5.9WNW30.11- 57.6 60.1 50.0---
2023-12-01 02:30 pm NW 21.4 27.2----30.11- 57.6 60.1 50.0---
2023-12-01 02:20 pmNNW 21.4 27.2 6.6 85.7WNW30.11- 57.6 60.1 49.8---
2023-12-01 02:10 pmNNW 23.3 27.2----30.11- 57.6 60.1 49.5---
2023-12-01 02:00 pmNNW 21.4 25.3----30.11-0.04 57.4 60.1 49.3---
2023-12-01 01:50 pmNNW 21.4 25.3 7.5 75.9WNW30.11- 57.4 60.1 49.5---
2023-12-01 01:40 pmNNW 21.4 25.3----30.11- 57.4 60.1 49.3---
2023-12-01 01:30 pmNNW 21.4 27.2----30.11- 57.4 60.1 48.9---
2023-12-01 01:20 pmNNW 21.4 25.3 7.2 85.8WNW30.11- 57.4 60.1 49.1---
2023-12-01 01:10 pmNNW 21.4 25.3----30.12- 57.4 60.1 48.9---
2023-12-01 01:00 pmNNW 19.4 25.3----30.12-0.05 57.4 60.1 48.9---
2023-12-01 12:50 pmNNW 21.4 25.3 7.5 76.0WNW30.12- 57.4 60.1 49.3---
2023-12-01 12:40 pmNNW 21.4 25.3----30.12- 57.2 60.1 48.9---
2023-12-01 12:30 pmNNW 21.4 25.3----30.12- 57.2 60.1 49.5---
2023-12-01 12:20 pmNNW 19.4 23.3 6.2 85.7WNW30.13- 57.4 60.1 49.6---
2023-12-01 12:10 pmNNW 21.4 25.3----30.13- 57.4 60.1 49.1---
2023-12-01 12:00 pmNNW 19.4 25.3----30.13-0.01 57.2 60.1 48.6---
2023-12-01 11:50 amNNW 19.4 23.3 7.2 166.1WNW30.14- 57.2 60.1 48.4---
2023-12-01 11:40 amNNW 19.4 23.3----30.14- 57.2 60.1 48.7---
2023-12-01 11:30 amNNW 19.4 23.3----30.14- 57.2 60.1 48.6---
2023-12-01 11:20 amNNW 19.4 23.3 7.2 176.1WNW30.15- 57.4 60.1 48.7---
2023-12-01 11:10 amNNW 19.4 25.3----30.15- 57.7 60.1 48.2---
2023-12-01 11:00 amNNW 21.4 25.3----30.15+0.04 57.7 60.1 47.8---
2023-12-01 10:50 amNNW 19.4 23.3 6.9 85.9WNW30.16- 57.6 60.1 48.4---
2023-12-01 10:40 amNNW 19.4 25.3----30.16- 57.6 60.1 48.2---
2023-12-01 10:30 amNNW 17.5 23.3----30.16- 57.4 60.1 48.9---
2023-12-01 10:20 amNNW 19.4 25.3 6.6 86.0 NW30.16- 57.6 60.1 48.9---
2023-12-01 10:10 amNNW 19.4 23.3----30.16- 57.6 60.1 48.7---
2023-12-01 10:00 amNNW 19.4 23.3----30.16+0.06 57.7 60.1 48.6---
2023-12-01 09:50 amNNW 19.4 25.3 6.6 86.1 NW30.16- 57.6 60.1 48.4---
2023-12-01 09:40 amNNW 19.4 23.3----30.16- 57.7 60.1 48.9---
2023-12-01 09:30 amNNW 19.4 23.3----30.16- 57.6 60.1 49.1---
2023-12-01 09:20 amNNW 19.4 25.3 6.2 146.2 NW30.16- 57.6 60.1 49.8---
2023-12-01 09:10 amNNW 17.5 21.4----30.15- 57.6 60.1 49.6---
2023-12-01 09:00 amNNW 17.5 21.4----30.15+0.05 57.4 59.9 48.9---
2023-12-01 08:50 amNNW 17.5 21.4 6.2 86.0WNW30.15- 57.6 59.9 48.7---
2023-12-01 08:40 amNNW 17.5 21.4----30.14- 57.7 59.9 48.6---
2023-12-01 08:30 amNNW 19.4 23.3----30.14- 57.7 59.9 48.6---
2023-12-01 08:20 amNNW 19.4 23.3 7.2 86.1WNW30.13- 57.9 59.9 48.6---
2023-12-01 08:10 amNNW 17.5 23.3----30.13- 57.7 59.9 48.7---
2023-12-01 08:00 amNNW 17.5 21.4----30.12+0.04 57.7 59.9 49.5---
2023-12-01 07:50 amNNW 17.5 21.4 6.9 85.8WNW30.12- 57.6 59.9 49.3---
2023-12-01 07:40 amNNW 17.5 21.4 6.9-5.8WNW30.11- 57.4 59.9 48.7---
2023-12-01 07:30 amNNW 17.5 23.3----30.11- 57.2 59.9 48.9---
2023-12-01 07:20 amNNW 15.5 21.4 7.2 85.9WNW30.11- 57.2 59.9 51.1---
2023-12-01 07:10 am N 17.5 21.4----30.11- 56.8 59.9 50.5---
2023-12-01 07:00 am N 17.5 21.4----30.10+0.03 56.8 59.9 50.2---
2023-12-01 06:50 am N 15.5 19.4 8.2 86.2 NW30.10- 56.8 59.9 50.2---
2023-12-01 06:40 amNNW 15.5 19.4----30.09- 56.8 59.9 50.2---
2023-12-01 06:30 am N 17.5 21.4----30.09- 56.8 59.9 49.6---
2023-12-01 06:20 amNNW 17.5 21.4 7.9 76.0 NW30.09- 56.8 59.9 50.0---
2023-12-01 06:10 amNNW 17.5 21.4----30.10- 56.5 59.7 49.6---
2023-12-01 06:00 amNNW 17.5 21.4----30.09+0.03 56.5 59.7 50.5---
2023-12-01 05:50 amNNW 17.5 21.4 7.5 86.0WNW30.09- 56.3 59.9 50.7---
2023-12-01 05:40 amNNW 17.5 21.4 7.5-6.0WNW30.09- 56.1 59.9 51.4---
2023-12-01 05:30 am N 17.5 23.3----30.08- 55.9 59.9 51.6---
2023-12-01 05:20 am N 17.5 21.4 8.2 85.9 NW30.08- 55.9 59.9 51.6---
2023-12-01 05:10 amNNW 19.4 23.3----30.08- 56.5 59.9 51.6---
2023-12-01 05:00 amNNW 19.4 25.3----30.08+0.02 56.5 60.1 52.3---
2023-12-01 04:50 amNNW 23.3 29.1 7.9 75.9 NW30.08- 56.3 60.1 52.5---
2023-12-01 04:40 amNNW 23.3 29.1----30.08- 57.9 60.1 51.1---
2023-12-01 04:30 amNNW 21.4 25.3----30.08- 58.3 60.1 50.5---
2023-12-01 04:20 amNNW 21.4 25.3 7.9 75.8 NW30.07- 58.3 60.3 50.5---
2023-12-01 04:10 amNNW 21.4 27.2----30.07- 58.3 60.3 50.0---
2023-12-01 04:00 amNNW 21.4 27.2----30.07+0.01 58.3 60.3 50.4---
2023-12-01 03:50 amNNW 21.4 27.2 8.2 75.8 NW30.07- 58.3 60.3 50.4---
2023-12-01 03:40 amNNW 19.4 25.3----30.07- 58.3 60.3 50.4---
2023-12-01 03:30 amNNW 21.4 25.3----30.07- 58.3 60.3 50.2---
2023-12-01 03:20 amNNW 19.4 23.3 7.9 85.7WNW30.07- 58.3 60.4 50.5---
2023-12-01 03:10 amNNW 21.4 25.3 7.9-5.7WNW30.07- 58.3 60.4 49.8---
2023-12-01 03:00 amNNW 21.4 27.2----30.07+0.00 58.3 60.4 49.5---
2023-12-01 02:50 amNNW 21.4 27.2 7.5 75.7WNW30.06- 58.3 60.4 50.2---
2023-12-01 02:40 amNNW 19.4 25.3----30.06- 58.6 60.4 50.5---
2023-12-01 02:30 amNNW 21.4 25.3----30.07- 58.5 60.4 50.4---
2023-12-01 02:20 amNNW 21.4 25.3 6.9 75.7WNW30.07- 58.5 60.6 50.0---
2023-12-01 02:10 amNNW 21.4 25.3----30.06- 58.5 60.6 49.6---
2023-12-01 02:00 amNNW 21.4 25.3----30.06+0.01 58.5 60.6 49.6---
2023-12-01 01:50 amNNW 21.4 25.3 6.9 75.6 NW30.06- 58.3 60.6 49.8---
2023-12-01 01:40 amNNW 19.4 25.3----30.06- 58.3 60.6 50.0---
2023-12-01 01:30 amNNW 19.4 25.3----30.06- 58.5 60.6 50.2---
2023-12-01 01:20 amNNW 21.4 25.3 6.9 65.5 NW30.06- 58.3 60.6 49.8---
2023-12-01 01:10 amNNW 19.4 23.3----30.06- 58.5 60.6 50.7---
2023-12-01 01:00 amNNW 19.4 25.3----30.06+0.01 58.5- 50.4---
2023-12-01 12:50 amNNW 19.4 25.3 7.2 75.6 NW30.06- 58.3 60.6 50.0---
2023-12-01 12:40 amNNW 21.4 25.3----30.06- 58.1 60.6 50.0---
2023-12-01 12:30 amNNW 19.4 25.3----30.06- 58.5 60.8 49.8---
2023-12-01 12:20 amNNW 21.4 25.3 6.6 65.4 NW30.07- 58.5 60.6 49.3---
2023-12-01 12:10 amNNW 21.4 25.3----30.07- 58.5 60.8 49.6---
2023-12-01 12:00 amNNW 21.4 25.3----30.06+0.02 58.5 60.8 50.5---
2023-11-30 11:50 pmNNW 21.4 25.3 6.6 75.4 NW30.06- 58.6 60.8 51.1---
2023-11-30 11:40 pmNNW 21.4 25.3----30.06- 58.5 60.8 50.7---
2023-11-30 11:30 pmNNW 21.4 27.2----30.06- 58.5 60.8 50.5---
2023-11-30 11:20 pmNNW 21.4 25.3 6.2 75.3 NW30.06- 58.5 60.8 50.9---
2023-11-30 11:10 pmNNW 21.4 25.3----30.05- 58.5 60.8 51.1---
2023-11-30 11:00 pmNNW 21.4 25.3----30.05+0.02 58.5- 51.8---
2023-11-30 10:50 pm NW 21.4 27.2 6.2 75.5WNW30.05- 58.5 60.8 52.2---
2023-11-30 10:40 pm NW 21.4 27.2----30.05- 58.5 60.8 52.7---
2023-11-30 10:30 pm NW 21.4 25.3----30.05- 58.5 60.8 52.9---
2023-11-30 10:20 pm NW 17.5 23.3 5.9 75.7 NW30.05- 57.9 60.8 53.4---
2023-11-30 10:10 pm NW 17.5 21.4 5.9-5.7 NW30.05- 57.7 60.8 53.2---
2023-11-30 10:00 pm NW 17.5 21.4----30.05+0.03 58.1 60.8 53.6---
2023-11-30 09:50 pm NW 15.5 21.4 5.9 85.5WNW30.05- 58.5 60.8 53.1---
2023-11-30 09:40 pm NW 15.5 19.4----30.05- 58.3 60.8 52.7---
2023-11-30 09:30 pm NW 13.6 17.5----30.04- 58.5 60.8 52.5---
2023-11-30 09:20 pm NW 15.5 19.4 6.2 75.5 NW30.04- 58.5 60.8 51.6---
2023-11-30 09:10 pm NW 15.5 19.4----30.04- 58.6 60.8 51.8---
2023-11-30 09:00 pmNNW 15.5 19.4----30.04+0.03 59.0 60.8 52.2---
2023-11-30 08:50 pmNNW 15.5 19.4 7.2 75.9 NW30.03- 58.8 60.8 51.8---
2023-11-30 08:40 pmNNW 15.5 19.4----30.03- 58.8 60.8 51.8---
2023-11-30 08:30 pmNNW 15.5 19.4----30.04- 58.8 60.8 52.0---
2023-11-30 08:20 pmNNW 15.5 19.4 6.2 75.6 NW30.04- 58.8 60.8 52.7---
2023-11-30 08:10 pmNNW 17.5 21.4 6.2-5.6 NW30.03- 58.5 60.8 52.0---
2023-11-30 08:00 pm NW 17.5 21.4----30.03+0.04 58.3 60.8 52.5---
2023-11-30 07:50 pm NW 17.5 23.3 6.9 65.5 NW30.03- 58.5 60.8 52.3---
2023-11-30 07:40 pmNNW 17.5 21.4 6.9-5.5 NW30.03- 58.8 61.0 51.6---
2023-11-30 07:30 pmNNW 17.5 21.4----30.03- 58.8 61.0 52.0---
2023-11-30 07:20 pmNNW 17.5 21.4 6.6 65.5 NW30.03- 58.8 61.0 51.6---
2023-11-30 07:10 pmNNW 17.5 21.4----30.02- 58.8 61.0 52.2---
2023-11-30 07:00 pmNNW 19.4 23.3----30.02+0.04 58.8 61.0 51.8---
2023-11-30 06:50 pmNNW 17.5 21.4 6.6 75.5 NW30.02- 58.8 61.0 52.0---
2023-11-30 06:40 pmNNW 19.4 23.3----30.02- 58.8 61.0 51.8---
2023-11-30 06:30 pmNNW 19.4 23.3----30.01- 58.8 61.0 51.8---
2023-11-30 06:20 pmNNW 19.4 23.3 7.2 65.6WNW30.01- 58.8 61.0 52.0---
2023-11-30 06:10 pmNNW 19.4 23.3 7.2-5.6WNW30.01- 58.8 61.0 52.2---
2023-11-30 06:00 pm NW 19.4 25.3----30.01+0.04 58.8 61.0 52.3---
2023-11-30 05:50 pmNNW 19.4 25.3 7.2 95.7 NW30.01- 58.8 61.0 52.2---
2023-11-30 05:40 pmNNW 19.4 23.3----30.00- 59.0- 52.7---
2023-11-30 05:30 pmNNW 19.4 23.3----30.00- 58.8 61.0 52.5---
2023-11-30 05:20 pmNNW 21.4 23.3 7.2 65.5 NW29.99- 58.8 61.0 52.2---
2023-11-30 05:10 pmNNW 21.4 25.3----30.00- 58.8 61.0 52.3---
2023-11-30 05:00 pmNNW 21.4 25.3----29.99+0.01 58.8 61.0 52.3---
2023-11-30 04:50 pm NW 21.4 27.2 7.2 65.6NNW29.99- 58.8 61.0 52.3---
2023-11-30 04:40 pmNNW 21.4 25.3----29.99- 59.0 61.0 52.3---
2023-11-30 04:30 pmNNW 21.4 25.3----29.98- 58.8 61.0 51.8---
2023-11-30 04:20 pmNNW 19.4 23.3 6.9 65.6 NW29.98- 59.0 61.0 52.2---
2023-11-30 04:10 pmNNW 19.4 23.3----29.98- 59.0 61.0 52.0---
2023-11-30 04:00 pm NW 19.4 23.3----29.98-0.01 59.0 61.0 52.2---
2023-11-30 03:50 pmNNW 19.4 23.3 6.6 115.6WNW29.98- 59.0 61.0 52.7---
2023-11-30 03:00 pmNNW 19.4 23.3 7.2-5.6 NW29.98-0.02 59.0 61.0 52.5---
2023-11-30 02:50 pmNNW 19.4 23.3 6.9 95.6WNW29.98- 59.0 61.0 52.5---

Detailed Wave Summary
for 46028 as of (3:10 pm PST)
2310 GMT on 12/01/2023:

These wave data are displayed in rounded times.

     

Click on the graph icon in the table below to see a time series plot of the last five days of that observation.

5-day plot - Significant Wave Height Significant Wave Height (WVHT): 7.5 ft
5-day plot - Swell Height Swell Height (SwH): 4.6 ft
5-day plot - Swell Period Swell Period (SwP): 8.3 sec
5-day plot - Swell Direction Swell Direction (SwD): NW
5-day plot - Wind Wave Height Wind Wave Height (WWH): 5.9 ft
5-day plot - Wind Wave Period Wind Wave Period (WWP): 6.7 sec
5-day plot - Wind Wave Direction Wind Wave Direction (WWD): NW
5-day plot - Wave Steepness Wave Steepness (STEEPNESS):VERY_STEEP
5-day plot - Average Wave Period Average Wave Period (APD): 5.8 sec
Previous observations
TIME
(PST)
5-day plot - Wave Height
WVHT
ft
5-day plot - Swell Height
SwH
ft
5-day plot - Swell Period
SwP
sec
5-day plot - Swell Direction
SwD
 
5-day plot - Wind Wave Height
WWH
ft
5-day plot - Wind Wave Period
WWP
sec
5-day plot - Wind Wave Direction
WWD
 
5-day plot - Wave Steepness
STEEPNESS
 
5-day plot - Average Wave Period
APD
sec
2023-12-01 02:40 pm 7.5 3.9 16.0WNW 6.6 7.1 WNW AVERAGE 5.9
2023-12-01 02:10 pm 6.6 5.2 7.7WNW 4.3 5.9 NNW STEEP 5.7
2023-12-01 01:40 pm 7.5 5.2 16.0 NW 5.6 7.1 WNW STEEP 5.9
2023-12-01 01:10 pm 7.2 4.3 12.1 NW 5.9 7.7 WNW STEEP 5.8
2023-12-01 12:40 pm 7.5 3.9 16.0WNW 6.2 7.1 WNW STEEP 6.0
2023-12-01 12:10 pm 6.2 4.6 8.3WNW 4.6 6.2 WNW AVERAGE 5.7
2023-12-01 11:40 am 7.2 3.9 16.0WNW 5.9 7.7 WNW AVERAGE 6.1
2023-12-01 11:10 am 7.2 4.3 17.4WNW 5.9 7.7 NW AVERAGE 6.1
2023-12-01 10:40 am 6.9 4.3 10.0 NW 5.6 7.7 WNW STEEP 5.9
2023-12-01 10:10 am 6.6 4.9 7.7 NW 4.6 5.9 NW STEEP 6.0
2023-12-01 09:40 am 6.6 4.6 7.7 NW 4.6 6.7 NW STEEP 6.1
2023-12-01 09:10 am 6.2 4.6 13.8 NW 4.3 6.7 WNW SWELL 6.2
2023-12-01 08:40 am 6.2 4.9 8.3WNW 4.3 6.7 NW AVERAGE 6.0
2023-12-01 08:10 am 7.2 3.9 16.0WNW 5.9 7.7 WNW STEEP 6.1
2023-12-01 07:40 am 6.9 3.9 11.4 NW 5.6 7.7 WNW STEEP 5.8
2023-12-01 07:10 am 7.2 3.9 11.4 NW 5.9 7.7 WNW STEEP 5.9
2023-12-01 06:40 am 8.2 4.9 12.1 NW 6.2 7.7 NW STEEP 6.2
2023-12-01 06:10 am 7.9 3.9 9.1WNW 6.6 7.1 NW STEEP 6.0
2023-12-01 05:40 am 7.5 3.3 12.1 NW 6.9 7.7 WNW STEEP 6.0
2023-12-01 05:10 am 8.2 3.0 11.4NNW 7.9 7.7 NW STEEP 5.9
2023-12-01 04:40 am 7.9 3.0 11.4WNW 7.2 6.7 NWVERY_STEEP 5.9
2023-12-01 04:10 am 7.9 3.3 12.1 NW 7.2 7.1 NW STEEP 5.8
2023-12-01 03:40 am 8.2 3.6 9.1WNW 7.2 6.7 NWVERY_STEEP 5.8
2023-12-01 03:10 am 7.9 3.3 10.8WNW 7.2 7.7 WNW STEEP 5.7
2023-12-01 02:40 am 7.5 3.0 12.1 NW 7.2 7.1 WNW STEEP 5.7
2023-12-01 02:10 am 6.9 3.6 13.8NNW 5.9 7.1 WNW STEEP 5.7
2023-12-01 01:40 am 6.9 3.6 9.1 NW 5.6 7.1 NW STEEP 5.6
2023-12-01 01:10 am 6.9 3.0 12.9 NW 6.2 6.2 NWVERY_STEEP 5.5
2023-12-01 12:40 am 7.2 3.0 9.1WNW 6.6 6.7 NWVERY_STEEP 5.6
2023-12-01 12:10 am 6.6 2.6 14.8WNW 6.2 5.9 NWVERY_STEEP 5.4
2023-11-30 11:40 pm 6.6 3.3 10.0 NW 5.9 6.7 NW STEEP 5.4
2023-11-30 11:10 pm 6.2 3.6 8.3WNW 5.2 6.7 NW STEEP 5.3
2023-11-30 10:40 pm 6.2 3.6 8.3 NW 4.9 7.1 WNW STEEP 5.5
2023-11-30 10:10 pm 5.9 3.9 8.3WNW 4.6 6.7 NW STEEP 5.7
2023-11-30 09:40 pm 5.9 3.6 8.3WNW 4.6 6.2 NW AVERAGE 5.5
2023-11-30 09:10 pm 6.2 3.9 8.3WNW 4.9 6.7 NW STEEP 5.5
2023-11-30 08:40 pm 7.2 3.9 9.1WNW 5.9 7.1 NW STEEP 5.9
2023-11-30 08:10 pm 6.2 3.3 10.0WNW 5.2 7.1 NW STEEP 5.6
2023-11-30 07:40 pm 6.9 3.3 9.1WNW 5.9 6.2 NWVERY_STEEP 5.5
2023-11-30 07:10 pm 6.6 3.0 9.1WNW 5.9 6.2 NWVERY_STEEP 5.5
2023-11-30 06:40 pm 6.6 3.0 9.1WNW 5.9 6.7 NW STEEP 5.5
2023-11-30 06:10 pm 7.2 3.9 9.1WNW 6.2 5.9 WNWVERY_STEEP 5.6
2023-11-30 05:40 pm 7.2 3.6 9.1 NW 6.2 5.3 NNW AVERAGE 5.7
2023-11-30 05:10 pm 7.2 3.6 10.0 NW 6.2 5.9 NWVERY_STEEP 5.5
2023-11-30 04:40 pm 7.2 3.6 10.0 NW 6.2 5.6 NNWVERY_STEEP 5.6
2023-11-30 04:10 pm 6.9 3.3 9.1WNW 6.2 5.6 NWVERY_STEEP 5.6
2023-11-30 03:40 pm 6.6 3.3 10.8WNW 5.6 5.9 NW AVERAGE 5.6
2023-11-30 03:10 pm 7.2 3.3 10.0WNW 6.2 5.9 NWVERY_STEEP 5.6

Plot of wave energy versus frequency (and period)